Location: Newark
(56.0692°N, 115.8617°E)
Time: 12:08:53
(UTC+00:00)

Vanguard 2 Rocket - Pass Details

Date: 31 May 2020
Orbit: 556 x 3325 km, 32.9° (Epoch: 14 July)

Event Time Altitude Azimuth Distance (km) Brightness Sun altitude
Rises 11:29:20 0° 253° (WSW) 5,205 11.5 8.3°
Reaches altitude 10° 11:33:33 10° 239° (WSW) 4,646 11.0 7.8°
Maximum altitude 11:42:41 21° 197° (SSW) 4,546 10.4 6.7°
Drops below altitude 10° 11:54:22 10° 157° (SSE) 6,077 10.6 5.3°
Sets 12:01:16 0° 145° (SE) 7,277 10.9 4.5°
